Fort Myers, FL

1:36 PM EST on February 14, 2016 (GMT -0500)
Southwest Florida International

Weather History for KRSW - January, 2013

Change the Weather History Date:

Monday, January 7, 2013

  Actual Average (KFMY) Record (KFMY)
Temperature  
Mean Temperature 70 °F 64 °F  
Max Temperature 75 °F 74 °F 85 °F (1991)
Min Temperature 64 °F 54 °F 38 °F (2010)
Degree Days  
Heating Degree Days 0 4  
Month to date heating degree days 28  
Since 1 July heating degree days 121  
Cooling Degree Days 6 3  
Month to date cooling degree days 21  
Year to date cooling degree days 21  
Growing Degree Days 20 (Base 50)    
Moisture  
Dew Point 66 °F    
Average Humidity 88    
Maximum Humidity 96    
Minimum Humidity 67    
Precipitation  
Precipitation 0.18 in 0.07 in 2.06 in (1938)
Month to date precipitation 0.44  
Year to date precipitation 0.44  
Sea Level Pressure  
Sea Level Pressure 30.12 in    
Wind  
Wind Speed 7 mph (NE)    
Max Wind Speed 13 mph    
Max Gust Speed -    
Visibility 9 miles    
Events Rain    
T = Trace of Precipitation, MM = Missing Value Source: NWS Daily Summary

Daily Weather History Graph

Daily Weather History Graph

Search for Another Location

Airport or City:

Trip Planner

Search our weather history database for the weather conditions in past years. The results will help you decide how hot, cold, wet, or windy it might be!

Date:

Astronomy

Jan. 07, 2013 Rise Set
Actual Time 7:16 AM EST 5:50 PM EST
Civil Twilight 6:51 AM EST 6:15 PM EST
Nautical Twilight 6:22 AM EST 6:44 PM EST
Astronomical Twilight 5:54 AM EST 7:12 PM EST
Moon 2:45 AM EST (1/7) 1:55 PM EST (1/7)
Length of Visible Light 11h 24m
Length of Day
10h 33m
Waning Crescent, 23% of the Moon is Illuminated
Jan 7
Waning Crescent
Jan 11
New
Jan 18
First Quarter
Jan 26
Full
Feb 3
Last Quarter

Hourly Weather History & Observations

Time (EST) Temp. Dew Point Humidity Pressure Visibility Wind Dir Wind Speed Gust Speed Precip Events Conditions
12:53 AM 70.0 °F 66.9 °F 90% 30.11 in 10.0 mi NE 5.8 mph - N/A   Overcast
1:02 AM 69.8 °F 66.2 °F 88% 30.11 in 10.0 mi NE 4.6 mph - N/A   Overcast
1:11 AM 69.8 °F 66.2 °F 88% 30.11 in 10.0 mi ENE 5.8 mph - N/A   Mostly Cloudy
1:53 AM 69.1 °F 66.0 °F 90% 30.09 in 10.0 mi ENE 5.8 mph - N/A   Clear
2:53 AM 68.0 °F 66.9 °F 96% 30.09 in 10.0 mi ENE 3.5 mph - N/A   Mostly Cloudy
3:43 AM 68.0 °F 66.2 °F 94% 30.09 in 10.0 mi NE 5.8 mph - N/A   Overcast
3:53 AM 68.0 °F 66.9 °F 96% 30.08 in 10.0 mi ENE 5.8 mph - N/A   Overcast
4:53 AM 68.0 °F 66.9 °F 96% 30.09 in 10.0 mi NE 5.8 mph - N/A   Overcast
5:16 AM 68.0 °F 66.2 °F 94% 30.10 in 10.0 mi East 3.5 mph - N/A   Overcast
5:34 AM 68.0 °F 66.2 °F 94% 30.10 in 10.0 mi ENE 4.6 mph - N/A   Overcast
5:53 AM 68.0 °F 66.0 °F 93% 30.09 in 10.0 mi ENE 4.6 mph - N/A   Overcast
6:26 AM 68.0 °F 66.2 °F 94% 30.11 in 10.0 mi NE 5.8 mph - N/A   Overcast
6:53 AM 68.0 °F 66.2 °F 94% 30.12 in 10.0 mi ENE 8.1 mph - N/A   Overcast
7:04 AM 68.0 °F 66.2 °F 94% 30.12 in 10.0 mi ENE 5.8 mph - N/A   Mostly Cloudy
7:18 AM 68.0 °F 66.2 °F 94% 30.13 in 10.0 mi ENE 6.9 mph - N/A   Overcast
7:53 AM 69.1 °F 66.0 °F 90% 30.13 in 10.0 mi NE 10.4 mph - N/A   Overcast
8:42 AM 69.8 °F 66.2 °F 88% 30.16 in 6.0 mi ENE 6.9 mph - 0.00 in Rain Light Rain
8:53 AM 69.1 °F 66.0 °F 90% 30.15 in 6.0 mi ENE 5.8 mph - 0.01 in Rain Light Rain
8:59 AM 69.8 °F 66.2 °F 88% 30.16 in 2.5 mi ENE 5.8 mph - 0.01 in Rain Light Rain
9:12 AM 68.0 °F 66.2 °F 94% 30.17 in 1.2 mi East 6.9 mph - 0.07 in Rain Rain
9:27 AM 68.0 °F 66.2 °F 94% 30.17 in 3.0 mi NE 6.9 mph - 0.17 in Rain Light Rain
9:50 AM 69.8 °F 66.2 °F 88% 30.18 in 2.5 mi NE 8.1 mph - 0.17 in Rain Light Rain
9:53 AM 68.0 °F 66.9 °F 96% 30.17 in 3.0 mi NE 8.1 mph - 0.17 in Rain Light Rain
10:53 AM 68.0 °F 66.9 °F 96% 30.17 in 6.0 mi NE 12.7 mph - 0.00 in   Overcast
11:53 AM 69.1 °F 66.9 °F 93% 30.14 in 9.0 mi ENE 11.5 mph - N/A   Overcast
12:53 PM 70.0 °F 66.0 °F 87% 30.11 in 10.0 mi ENE 10.4 mph - N/A   Overcast
1:18 PM 69.8 °F 66.2 °F 88% 30.10 in 10.0 mi ENE 10.4 mph - N/A   Overcast
1:53 PM 71.6 °F 66.2 °F 83% 30.11 in 10.0 mi NNE 9.2 mph - N/A   Overcast
2:31 PM 73.4 °F 66.2 °F 78% 30.10 in 10.0 mi NE 9.2 mph - N/A   Mostly Cloudy
2:41 PM 73.4 °F 66.2 °F 78% 30.10 in 10.0 mi NE 11.5 mph - N/A   Mostly Cloudy
2:53 PM 73.0 °F 66.0 °F 79% 30.09 in 10.0 mi ENE 11.5 mph - N/A   Mostly Cloudy
3:53 PM 75.9 °F 64.0 °F 67% 30.09 in 10.0 mi East 11.5 mph - N/A   Clear
4:53 PM 75.0 °F 64.0 °F 69% 30.10 in 10.0 mi NE 9.2 mph - N/A   Mostly Cloudy
5:53 PM 73.4 °F 64.4 °F 73% 30.12 in 10.0 mi NE 10.4 mph - N/A   Clear
6:53 PM 70.0 °F 64.0 °F 81% 30.13 in 10.0 mi NE 6.9 mph - N/A   Clear
7:53 PM 69.1 °F 64.0 °F 84% 30.14 in 10.0 mi NE 5.8 mph - N/A   Clear
8:53 PM 68.0 °F 64.0 °F 87% 30.14 in 10.0 mi NE 5.8 mph - N/A   Clear
9:53 PM 66.9 °F 63.0 °F 87% 30.14 in 10.0 mi NE 3.5 mph - N/A   Partly Cloudy
10:53 PM 66.0 °F 64.0 °F 93% 30.14 in 10.0 mi NE 4.6 mph - N/A   Mostly Cloudy
11:36 PM 66.2 °F 62.6 °F 88% 30.14 in 10.0 mi NE 5.8 mph - N/A   Mostly Cloudy
11:53 PM 64.9 °F 63.0 °F 93% 30.13 in 10.0 mi NE 6.9 mph - N/A   Mostly Cloudy